Погода в Сунтаре

Погода в Сунтаре : погода сейчас, прогноз погоды и архив. Всё, что Вы хотите узнать о погоде в Сунтаре!

Хотите узнать прогноз погоды в Сунтаре? Тогда Вам сюда: Погода в Сунтаре

Поиск расширенной информации на нашем сайте:

Другие новости

Новости СМИ2

Главная страница сайта

Новости сайта

02.10.2013

Напоминаем, что на нашем новом сайте вы можете получить высокодетализированные прогнозы погоды по пунктам России, СНГ и мира (включающие важные для авиации метеовеличины, такие как направление и скорость ветра, видимость, явления погоды, количество и форма облачности, нижняя и верхняя граница облачности), а также ознакомиться с разнообразными материалами по авиационной метеорологии и подборкой полезных ссылок на эту тему.

Сайт Метеоцентр.Азия посвящён разработке технологий оптимизации авиаметеорологического обслуживания, включая проектирование и перспективное создание нескольких автоматизированных авиаметеорологических систем:
- система выпуска высокодетальных прогностических карт явлений погоды для нижнего воздушного пространства по России и ближнему зарубежью;
- система верификации прогнозов TAF (выпускаемых синоптиками официальных АМСГ РФ и ближнего зарубежья) и AUTOTAF (выпускаемых сайтом Метеоцентр.Азия) - выявление ошибок, онлайн-сопоставление с фактической погодой METAR, автоматическое внесение коррективов в прогнозы при резком отклонении фактической погоды от прогноза, подсчёт оправдываемости прогнозов по элементам и в целом;
- система обработки, анализа и отображения авиаметеорологической информации для применения провайдерами метеорологической информации.

Рекомендуем: офисные блоки на выгодных условиях снять офис в бц K2 в Румянцево описание помещений на сайте

Погода в Сунтаре - сегодня

Время (UTC), дата Ветер
(°,м/с) 
Видим.   Явления Облачность Т
(°С)
Тd
(°С)
f(%) Тe
(°С)
Pmin
(гПа)
dP
(гПа)
Po
(мм)
O2
(г/м3)
Тmin Tmax R s Состояние
почвы
03 21.03.17 230 (ЮЗ) 20000 м    ясно 
-1 -9.3 53 -2  1028.5  -0.6  758  308           
06 21.03.17 300 (СЗ) 20000 м    ясно 
+1.7 -8.3 47 1027.3  -1  757  304           
09 21.03.17 290 (З) 20000 м    1/0 верхняя 
[Ci fib]
+1.8 -8.1 48 1026.5  -0.7  757  304           
12 21.03.17 280 (З) 20000 м    1/0 верхняя 
[Ci fib]
-2.4 -9.7 57 -3  1027.1  0.2  757  309    +3.2       
15 21.03.17 270 (З) 20000 м    ясно 
-4 -9.4 66 -5  1026.9  -0.2  757  310           
18 21.03.17 280 (З) 20000 м    4/0 средняя 
[Ac trans]
-3.9 -7.6 75 -5  1026.8  -0.1  757  310           
21 21.03.17 250 (З) 20000 м    6/6 1110 м 
[Sc]
-5.2 -8.5 78 -7  1026.1  -0.8  756  312           
00 22.03.17 220 (ЮЗ) 20000 м    10/10 1140 м 
[Sc]
-5.8 -8.4 82 -7  1026.3  0.2  756  312  -6.2      43  равномерный
сухой снег
100% 
03 22.03.17 240 (ЮЗ) 20000 м    3/0 средняя 
[Ac trans]
-2 -7.4 66 -3  1024.8  -1.2  755  307           
06 22.03.17 290 (З) 20000 м    8/8 1300 м 
[Sc]
+1.3 -7.7 51 -1  1024.6  755  304           
09 22.03.17 300 (СЗ) 20000 м    5/3 1000 м средняя 
[Sc|Ac trans]
+2.4 -7.9 46 1024.5  755  303           
12 22.03.17 220 (ЮЗ) 20000 м    5/5 1500 м 
[Sc]
-1.2 -8.7 57 -1  1025.8  0.9  756  307    +3.1       
15 22.03.17 260 (З) 20000 м    3/0 средняя 
[Ac trans]
-3.8 -8.7 69 -3  1026.3  0.4  756  310           
18 22.03.17 190 (Ю) 20000 м    6/0 средняя, верхняя 
[Ac trans|Ci fib]
-6.3 -9.5 78 -6  1026.1  -0.4  756  313           
21 22.03.17 170 (Ю) 20000 м    8/0 средняя, верхняя 
[Ac trans|Ci fib]
-5 -9 73 -6  1025.6  -0.4  756  311           
00 23.03.17 180 (Ю) 20000 м    10/4 1000 м средняя 
[Sc|Ac trans]
-3.3 -8.4 68 -4  1025.4  -0.1  756  309  -6.4      43  равномерный
сухой снег
100% 
03 23.03.17 160 (Ю) 20000 м    10/0 средняя, верхняя 
[Ac trans|Ci fib]
+0.8 -6 60 1024  -1.1  755  304           
06 23.03.17 240 (ЮЗ) 20000 м    10/4 1000 м средняя, верхняя 
[Cu hum|Ac trans|Ci fib]
+3.6 -7 46 +2  1022  -1.8  754  300           
09 23.03.17 270 (З) 20000 м    10/5 600 м кучево-дожд., верхняя 
[Cb cap|Ci fib]
+3.5 -4.6 55 +2  1021.1  -0.9  753  300           
12 23.03.17 190 (Ю) 20000 м    5/5 1000 м 
[Sc]
+0.6 -4 71 +1  1021.1  -0.2  753  303    +4.9       
15 23.03.17 240 (ЮЗ) 20000 м    3/0 средняя 
[Ac trans]
-3.8 -8.7 69 -3  1021.3  -0.1  753  308           
18 23.03.17 170 (Ю) 20000 м    1/0 верхняя 
[Ci fib]
-7.7 -9.9 84 -7  1021.1  -0.4  752  313           
21 23.03.17 170 (Ю) 20000 м    ясно 
-9.2 -10.8 88 -9  1020.2  -0.9  752  315           
00 24.03.17 150 (ЮВ) 20000 м    1/0 средняя 
[Ac trans]
-10.2 -10.8 95 -10  1019.9  -0.4  751  316  -12.1      42  равномерный
сухой снег
100% 
03 24.03.17 120 (ЮВ) 20000 м    4/0 верхняя 
[Ci fib]
-0.2 -9.8 48 1018.6  -0.6  751  304           
Время (UTC), дата Ветер
(°,м/с) 
Видим.   Явления Облачность Т
(°С)
Тd
(°С)
f(%) Тe
(°С)
Pmin
(гПа)
dP
(гПа)
Po
(мм)
O2
(г/м3)
Тmin Tmax R s Состояние
почвы

Для получения пояснительной информации подведите курсор к названию столбца.

ПОГОДА в Сунтаре - архив

Всё, что Вы хотите узнать о погоде в Сунтаре - удобно и подробно!

Выберите нужную дату (начиная с 1 января 2015* года) и нажмите кнопку "Найти".
Будут отображены архивные сводки погоды по пункту Сунтар, начиная с указанной даты.


Отображать данные в формате CSV (для использования в таблицах Excel)


Внимание! Наш архив погоды предназначен исключительно для личного некоммерческого использования в познавательных целях. Если Вам необходимы официальные справки о состоянии погоды (для производственных, юридических, коммерческих и т.п. целей), обращайтесь в органы Росгидромета.

*Примечание: данная дата относится к архиву по метеостанциям СССР (Россия, СНГ, Балтия).
Архив по метеостанциям Зарубежной Европы и Азии (кроме Китая) хранится 10 дней, по другим регионам земного шара (Китай, Африка, Америка, Австралия, Океания) - 1 день.

Сунтар - район местоположения метеостанции


Название, широта, долгота, высота метеостанции:
Сунтар 62.2°ш. 117.6°д. 133 м над ур. моря [Российская Федерация]

Дополнительная информация

В oтличие oт бoльшинства пoгoдных сайтoв мы публикуем пoдрoбную метеoинфoрмацию в детальнoм прoфессиoнальнoм фoрмате.

Характеристики температуры и влажнoсти вoздуха измеряются на высoте 2 м в тени вдали oт зданий и деревьев.
Скoрoсть ветра измеряется на высoте 10 м (на урoвне рoста челoвека скoрoсть ветра ниже в 1.5-2 раза). Если метеoстанция нахoдится в гoрoде или в лесу, тo скoрoсть ветра занижена на 2-4 м/с пo сравнению с oткрытым местoм. Скoрoсть ветра над акватoриями крупных рек и oзёр, а также на вершинах хoлмoв на 2-5 м/с выше, чем в oбычных услoвиях.
Атмoсфернoе давление в разных тoчках местнoсти мoжет значительнo oтличаться oт давления на метеoстанции, в зависимoсти oт услoвий рельефа (при пoдъёме на 10 м давление пoнижается примернo на 1 мм рт.ст.).